Terug naar catalogus

TITAN 3C TRANSTAGE DEB

LostHEO
NORAD 28553·DEBRIS·🇺🇸 United States

Gelanceerd Dec 21, 1965 vanaf Cape Canaveral Space Force Station

Loading…

Volgende Passages (komende 24 uur)

TLE

VerouderdSource: Space-Track

Epoch: Nov 7, 2025, 10:19 UTC

1 28553U 65108BU  25311.42991332  .00000046  00000-0  81786-3 0  9991
2 28553  26.6303 277.8000 6780846 250.8644 336.3340  2.72816909215045

Volg TITAN 3C TRANSTAGE DEB in realtime met AllMySat

Download on the App Store